When you browse on this site, cookies collect data to enhance your experience and personalize the content and advertising you see.
Visit our Privacy Policy to learn more. By continuing to use the site, you agree to this use of cookies and data.
  • In Schweiz
  • Länderverzeichnis
  • Für 7 Tage
  • Wassertemperatur
  • Satellitenkarten
  • Wetterkarte
  • Widgets
  • user-avatar
    Anmelden

    Stündliche Wetter Lubango

    Heute, 21 Mai, Dienstag

    Zeit Temperatur Niederschläge Wind Luftdruck Luftfeuchtigkeit
    00:00 +15°C° 0 mm 1 m/S 607 mmHg 34%
    01:00 +15°C° 0 mm 1 m/S 607 mmHg 33%
    02:00 +15°C° 0 mm 1 m/S 607 mmHg 33%
    03:00 +15°C° 0 mm 1 m/S 607 mmHg 33%
    04:00 +14°C° 0 mm 1 m/S 607 mmHg 33%
    05:00 +15°C° 0 mm 1 m/S 607 mmHg 34%
    06:00 +15°C° 0 mm 1 m/S 607 mmHg 35%
    07:00 +16°C° 0 mm 1 m/S 608 mmHg 35%
    08:00 +19°C° 0 mm 2 m/S 609 mmHg 31%
    09:00 +22°C° 0 mm 3 m/S 610 mmHg 26%
    10:00 +26°C° 0 mm 3 m/S 612 mmHg 21%
    11:00 +27°C° 0 mm 3 m/S 611 mmHg 20%
    12:00 +28°C° 0 mm 3 m/S 611 mmHg 18%
    13:00 +28°C° 0 mm 3 m/S 611 mmHg 18%
    14:00 +27°C° 0 mm 3 m/S 611 mmHg 18%
    15:00 +27°C° 0 mm 3 m/S 610 mmHg 18%
    16:00 +27°C° 0 mm 2 m/S 610 mmHg 18%
    17:00 +24°C° 0 mm 2 m/S 609 mmHg 24%
    18:00 +20°C° 0 mm 1 m/S 608 mmHg 30%
    19:00 +16°C° 0 mm 1 m/S 607 mmHg 36%
    20:00 +16°C° 0 mm 1 m/S 607 mmHg 38%
    21:00 +15°C° 0 mm 1 m/S 607 mmHg 39%
    22:00 +15°C° 0 mm 1 m/S 608 mmHg 40%
    23:00 +15°C° 0 mm 1 m/S 608 mmHg 40%

    Morgen, 22 Mai, Mittwoch

    Zeit Temperatur Niederschläge Wind Luftdruck Luftfeuchtigkeit
    00:00 +15°C° 0 mm 1 m/S 608 mmHg 39%
    01:00 +15°C° 0 mm 1 m/S 608 mmHg 39%
    02:00 +14°C° 0 mm 1 m/S 607 mmHg 40%
    03:00 +14°C° 0 mm 1 m/S 607 mmHg 40%
    04:00 +14°C° 0 mm 1 m/S 607 mmHg 41%
    05:00 +14°C° 0 mm 1 m/S 607 mmHg 41%
    06:00 +14°C° 0 mm 1 m/S 607 mmHg 41%
    07:00 +15°C° 0 mm 1 m/S 608 mmHg 42%
    08:00 +19°C° 0 mm 1 m/S 609 mmHg 35%
    09:00 +21°C° 0 mm 2 m/S 611 mmHg 29%
    10:00 +26°C° 0 mm 2 m/S 612 mmHg 23%
    11:00 +26°C° 0 mm 3 m/S 612 mmHg 21%
    12:00 +27°C° 0 mm 3 m/S 612 mmHg 20%
    13:00 +28°C° 0 mm 4 m/S 612 mmHg 19%
    14:00 +27°C° 0 mm 4 m/S 611 mmHg 20%
    15:00 +26°C° 0 mm 4 m/S 610 mmHg 22%
    16:00 +26°C° 0 mm 4 m/S 610 mmHg 23%
    17:00 +22°C° 0 mm 3 m/S 609 mmHg 31%
    18:00 +18°C° 0 mm 2 m/S 608 mmHg 39%
    19:00 +15°C° 0 mm 2 m/S 607 mmHg 47%
    20:00 +15°C° 0 mm 1 m/S 608 mmHg 48%
    21:00 +15°C° 0 mm 1 m/S 608 mmHg 49%
    22:00 +14°C° 0 mm 1 m/S 608 mmHg 50%
    23:00 +14°C° 0 mm 1 m/S 608 mmHg 50%

    übermorgen, 23 Mai, Donnerstag

    Zeit Temperatur Niederschläge Wind Luftdruck Luftfeuchtigkeit
    00:00 +14°C° 0 mm 1 m/S 608 mmHg 49%
    01:00 +14°C° 0 mm 1 m/S 608 mmHg 49%
    02:00 +13°C° 0 mm 1 m/S 608 mmHg 49%
    03:00 +13°C° 0 mm 1 m/S 607 mmHg 49%
    04:00 +13°C° 0 mm 1 m/S 607 mmHg 49%
    05:00 +13°C° 0 mm 1 m/S 607 mmHg 49%
    06:00 +14°C° 0 mm 1 m/S 607 mmHg 49%
    07:00 +14°C° 0 mm 1 m/S 608 mmHg 49%
    08:00 +18°C° 0 mm 1 m/S 609 mmHg 42%
    09:00 +22°C° 0 mm 1 m/S 611 mmHg 34%
    10:00 +25°C° 0 mm 2 m/S 612 mmHg 27%
    11:00 +26°C° 0 mm 2 m/S 612 mmHg 26%
    12:00 +27°C° 0 mm 3 m/S 612 mmHg 25%
    13:00 +27°C° 0 mm 3 m/S 611 mmHg 23%
    14:00 +27°C° 0 mm 3 m/S 611 mmHg 24%
    15:00 +26°C° 0 mm 3 m/S 610 mmHg 24%
    16:00 +26°C° 0 mm 3 m/S 609 mmHg 24%
    17:00 +23°C° 0 mm 2 m/S 609 mmHg 30%
    18:00 +19°C° 0 mm 2 m/S 608 mmHg 36%
    19:00 +16°C° 0 mm 1 m/S 607 mmHg 42%
    20:00 +16°C° 0 mm 1 m/S 607 mmHg 43%
    21:00 +15°C° 0 mm 1 m/S 608 mmHg 44%
    22:00 +15°C° 0 mm 1 m/S 608 mmHg 45%
    23:00 +15°C° 0 mm 1 m/S 608 mmHg 45%

    24 Mai, Freitag

    Zeit Temperatur Niederschläge Wind Luftdruck Luftfeuchtigkeit
    00:00 +15°C° 0 mm 1 m/S 608 mmHg 45%
    01:00 +15°C° 0 mm 1 m/S 608 mmHg 45%
    02:00 +14°C° 0 mm 1 m/S 608 mmHg 46%
    03:00 +14°C° 0 mm 1 m/S 607 mmHg 46%
    04:00 +14°C° 0 mm 1 m/S 607 mmHg 46%
    05:00 +14°C° 0 mm 1 m/S 608 mmHg 46%
    06:00 +15°C° 0 mm 1 m/S 608 mmHg 46%
    07:00 +15°C° 0 mm 1 m/S 609 mmHg 45%
    08:00 +19°C° 0 mm 1 m/S 610 mmHg 39%
    09:00 +23°C° 0 mm 1 m/S 611 mmHg 33%
    10:00 +26°C° 0 mm 2 m/S 613 mmHg 27%
    11:00 +27°C° 0 mm 2 m/S 612 mmHg 26%
    12:00 +27°C° 0 mm 2 m/S 612 mmHg 24%
    13:00 +28°C° 0 mm 2 m/S 611 mmHg 22%
    14:00 +27°C° 0 mm 2 m/S 611 mmHg 24%
    15:00 +26°C° 0 mm 1 m/S 610 mmHg 26%
    16:00 +25°C° 0 mm 1 m/S 609 mmHg 28%
    17:00 +23°C° 0 mm 1 m/S 609 mmHg 32%
    18:00 +21°C° 0 mm 1 m/S 609 mmHg 36%
    19:00 +19°C° 0 mm 1 m/S 608 mmHg 40%
    20:00 +18°C° 0 mm 1 m/S 608 mmHg 43%
    21:00 +16°C° 0 mm 1 m/S 609 mmHg 45%
    22:00 +16°C° 0 mm 1 m/S 609 mmHg 47%
    23:00 +16°C° 0 mm 1 m/S 609 mmHg 46%

    25 Mai, Samstag

    Zeit Temperatur Niederschläge Wind Luftdruck Luftfeuchtigkeit
    00:00 +18°C° 0 mm 1 m/S 609 mmHg 44%
    01:00 +18°C° 0 mm 1 m/S 609 mmHg 43%
    02:00 +18°C° 0 mm 1 m/S 609 mmHg 43%
    03:00 +18°C° 0 mm 1 m/S 609 mmHg 43%
    04:00 +16°C° 0 mm 2 m/S 609 mmHg 43%
    05:00 +16°C° 0 mm 2 m/S 609 mmHg 44%
    06:00 +16°C° 0 mm 2 m/S 609 mmHg 45%
    07:00 +16°C° 0 mm 1 m/S 609 mmHg 46%
    08:00 +19°C° 0 mm 2 m/S 610 mmHg 40%
    09:00 +22°C° 0 mm 3 m/S 611 mmHg 33%
    10:00 +26°C° 0 mm 4 m/S 613 mmHg 26%
    11:00 +26°C° 0 mm 4 m/S 612 mmHg 25%
    12:00 +27°C° 0 mm 3 m/S 612 mmHg 24%
    13:00 +28°C° 0 mm 2 m/S 611 mmHg 23%
    14:00 +27°C° 0 mm 2 m/S 611 mmHg 24%
    15:00 +27°C° 0 mm 1 m/S 610 mmHg 26%
    16:00 +26°C° 0 mm 1 m/S 609 mmHg 27%
    17:00 +24°C° 0 mm 1 m/S 609 mmHg 31%
    18:00 +21°C° 0 mm 1 m/S 609 mmHg 35%
    19:00 +18°C° 0 mm 2 m/S 608 mmHg 39%
    20:00 +19°C° 0 mm 1 m/S 608 mmHg 40%
    21:00 +19°C° 0 mm 1 m/S 609 mmHg 40%
    22:00 +18°C° 0 mm 1 m/S 609 mmHg 41%
    23:00 +18°C° 0 mm 1 m/S 609 mmHg 41%

    26 Mai, Sonntag

    Zeit Temperatur Niederschläge Wind Luftdruck Luftfeuchtigkeit
    00:00 +18°C° 0 mm 1 m/S 609 mmHg 40%
    01:00 +18°C° 0 mm 1 m/S 609 mmHg 40%
    02:00 +18°C° 0 mm 1 m/S 608 mmHg 41%
    03:00 +18°C° 0 mm 1 m/S 608 mmHg 41%
    04:00 +18°C° 0 mm 1 m/S 608 mmHg 42%
    05:00 +16°C° 0 mm 1 m/S 608 mmHg 43%
    06:00 +16°C° 0 mm 1 m/S 609 mmHg 43%
    07:00 +16°C° 0 mm 1 m/S 609 mmHg 44%
    08:00 +19°C° 0 mm 2 m/S 610 mmHg 38%
    09:00 +22°C° 0 mm 3 m/S 611 mmHg 32%
    10:00 +25°C° 0 mm 4 m/S 612 mmHg 26%
    11:00 +26°C° 0 mm 3 m/S 612 mmHg 25%
    12:00 +27°C° 0 mm 3 m/S 611 mmHg 23%
    13:00 +28°C° 0 mm 2 m/S 611 mmHg 22%
    14:00 +28°C° 0 mm 2 m/S 611 mmHg 23%
    15:00 +27°C° 0 mm 2 m/S 610 mmHg 24%
    16:00 +26°C° 0 mm 1 m/S 609 mmHg 26%
    17:00 +24°C° 0 mm 1 m/S 609 mmHg 30%
    18:00 +22°C° 0 mm 1 m/S 609 mmHg 34%
    19:00 +20°C° 0 mm 1 m/S 608 mmHg 37%
    20:00 +19°C° 0 mm 1 m/S 608 mmHg 39%
    21:00 +18°C° 0 mm 1 m/S 608 mmHg 41%
    22:00 +18°C° 0 mm 1 m/S 609 mmHg 42%
    23:00 +18°C° 0 mm 1 m/S 609 mmHg 42%
    Mehr zeigen